This is the latest recevied weather packets stored in our database for station/object ke5jzm-1. If no packets are shown the sender has not sent any weather packets the latest 10 day(s).
| Time | Temp. | Humidity | Pressure | Rain* | Wind** | Luminosity | Snow |
|---|---|---|---|---|---|---|---|
| 1777675801 | 23.89° C | 61% | 1010.5 hPa | 0.51 mm | - | 15 W/m² | - |
| 1777675742 | 24.44° C | 61% | 1010.5 hPa | 0.51 mm | - | 15 W/m² | - |
| 1777675681 | 24.44° C | 61% | 1010.5 hPa | 0.76 mm | - | 13 W/m² | - |
| 1777675622 | 24.44° C | 61% | 1010.5 hPa | 0.76 mm | - | 11 W/m² | - |
| 1777675561 | 24.44° C | 61% | 1010.5 hPa | 0.76 mm | - | 11 W/m² | - |
| 1777675501 | 24.44° C | 61% | 1010.4 hPa | 0.76 mm | - | 15 W/m² | - |
| 1777675441 | 24.44° C | 61% | 1010.4 hPa | 1.02 mm | - | 15 W/m² | - |
| 1777675382 | 24.44° C | 61% | 1010.5 hPa | 1.02 mm | - | 12 W/m² | - |
| 1777675322 | 24.44° C | 61% | 1010.5 hPa | 1.27 mm | - | 13 W/m² | - |
| 1777675262 | 24.44° C | 61% | 1010.5 hPa | 1.52 mm | - | 12 W/m² | - |
| 1777675197 | 24.44° C | 61% | 1010.5 hPa | 1.52 mm | - | 13 W/m² | - |
| 1777675138 | 24.44° C | 61% | 1010.4 hPa | 1.52 mm | - | 15 W/m² | - |
| 1777675077 | 24.44° C | 61% | 1010.3 hPa | 1.78 mm | - | 18 W/m² | - |
| 1777675017 | 24.44° C | 61% | 1010.4 hPa | 1.78 mm | - | 20 W/m² | - |
| 1777674957 | 24.44° C | 61% | 1010.4 hPa | 2.79 mm | - | 19 W/m² | - |
| 1777674897 | 24.44° C | 61% | 1010.5 hPa | 2.79 mm | - | 22 W/m² | - |
| 1777674838 | 24.44° C | 61% | 1010.4 hPa | 3.3 mm | - | 24 W/m² | - |
| 1777674777 | 23.89° C | 61% | 1010.4 hPa | 3.81 mm | - | 33 W/m² | - |
| 1777674717 | 24.44° C | 61% | 1010.4 hPa | 4.06 mm | - | 44 W/m² | - |
| 1777674658 | 24.44° C | 61% | 1010.4 hPa | 4.83 mm | - | 45 W/m² | - |
| 1777674597 | 24.44° C | 61% | 1010.4 hPa | 5.33 mm | - | 37 W/m² | - |
| 1777674538 | 23.89° C | 61% | 1010.4 hPa | 5.84 mm | - | 30 W/m² | - |
| 1777674478 | 23.89° C | 61% | 1010.4 hPa | 6.6 mm | - | 30 W/m² | - |
| 1777674418 | 24.44° C | 61% | 1010.3 hPa | 6.86 mm | - | 32 W/m² | - |
| 1777674378 | 24.44° C | 61% | 1010.3 hPa | 7.11 mm | - | 33 W/m² | - |
* Rain latest hour (hover to see other rain measurements)
** Current wind speed in m/s (hover to see current wind gust speed)